Вернуться в каталог

HULIANWANG DIGUI-119

АктивенСвязьLEO
NORAD 67059·PAYLOAD·🇨🇳 China

Запущен Dec 11, 2025 с Wenchang Space Launch Site

Loading…

Ближайшие Пролёты (ближайшие 24 часа)

TLE

СвежийSource: Space-Track

Эпоха: Sep 14, 2026, 20:17 UTC

1 67059U 25295A   26257.84567494 -.00000119  00000-0  10919-4 0  9995
2 67059  50.0035  64.2150 0000810  64.8635 295.2321 13.29325778 37428

Отслеживайте HULIANWANG DIGUI-119 в реальном времени с AllMySat

Download on the App Store